SL-8 DEB, 25028

Orbit data source: Space-Track

SL-8 DEB, 25028 is space debris in LEO originally from a launch on Wed, 16 Jun 1993 UTC launched from the Plesetsk Missile And Space Complex (PKMTR). Debris objects in space refer to the collection of defunct objects orbiting the Earth. Examples of debris include non-operational satellites, rocket bodies, and fragments generated from explosions, collisions, or faulty payload assembly.

Loading next visibility...
Identifier
25028, 1993-036D
Orbit
LEO
Country
Flag of CISCIS
Related business
Manufacturer
Unknown
Mission
Spacecraft
Bus & Motor
Unknown
Mass
Unknown
Launch date (UTC)
Icon of a cake. It is the launch day of the satellite!1993-06-16 (33 years ago)
Launch vehicle
Unknown
Launch site
Plesetsk Missile And Space Complex (PKMTR)
Object type
Payload
Rocket body
Debris
Shape & HBR
Unknown shape, 0.1 m
Radar Cross Section
Medium (>0.1 m² and <1 m²)

Expand to show TLE details & history
Last TLE update: 9 hours ago

TLE from 9 hours ago
0 SL-8 DEB
1 25028U 93036D   26167.19977794  .00000800  00000-0  25167-3 0  9995
2 25028  74.0414 309.6699 0009175 153.4153 268.9669 14.42000755603750
Epoch: 2026-06-16T04:47Z
TLE epoch observation values (Epoch: 2026-06-16T04:47:40.814Z)
Latitude
58.43779°
Longitude
0.85747°
Altitude
761.536 km
Speed
7.479 km/s
True Right ascension
22h 29m 00s
True Declination
58° 17' 03"
Sunlit
Object was in daylight at epoch
Visualization orbit readout
Latitude
Unknown
Longitude
Unknown
Altitude
Unknown
Speed
Unknown
Apparent Right ascension
Unknown
Apparent Declination
Unknown
Sunlit
N/A
Visualization observer readout
Local Sidereal Time
00:04:30
Azimuth
Unknown
Elevation
Unknown
Doppler factor
Unknown
Orbital elements
Apogee altitude
756.052 km
Perigee altitude
742.973 km
Semi-major axis
7,127.65 km
Eccentricity
0.00092
Inclination
74.0414°
RAAN
309.6699°
Arg. of periapsis
153.4153°
True anomaly
268.86178°
Mean anomaly
268.9669°
Eccentric anomaly
268.91434°
Mean motion
3.60681 °/min
Orbital period
99.81 mins
BSTAR
0.00025167

Documentation

Showing up to 5 results
|